Location: Blandford
(50.8667°N, 2.1667°W)
Time: 02:57:16
(UTC+00:00)

Mayak - Pass Details

Date: 09 April 2020
Orbit: 581 x 601 km, 97.5° (Epoch: 26 May)

Event Time Altitude Azimuth Distance (km) Brightness Sun altitude
Rises 23:36:19 0° 3° (N) 2,826 ? -30.6°
Reaches altitude 10° 23:38:48 10° 350° (N) 1,918 ? -30.7°
Enters shadow 23:41:31 23° 311° (NW) 1,264 ? -30.8°
